Location: Melbourne
(37.8170°S, 144.9670°E)
Time: 11:26:46
(UTC+10:00)

Daily predictions for brighter satellites

Satellite Brightness Start Highest point End
(mag) Time Altitude Azimuth Time Altitude Azimuth Time Altitude Azimuth
Cosmos 1605 Rocket 4.1 17:31:19 10° S 17:37:45 71° E 17:44:08 10° NNE
Cosmos 1570 Rocket 4.5 17:35:10 10° S 17:40:11 40° ESE 17:45:10 10° NE
Cosmos 1862 3.4 17:39:46 10° N 17:43:48 89° E 17:47:57 10° S
Meteor 1-27 Rocket 3.8 17:40:27 10° S 17:46:23 66° E 17:52:07 10° NNE
H-2A R/B (2) 4.5 17:17:12 10° W 17:46:27 43° NNW 17:51:45 10° NE
COSMOS 2487 2.4 17:43:32 10° SSW 17:47:07 77° ESE 17:50:37 10° NNE
Cosmos 1633 4.1 17:45:51 10° NE 17:48:22 17° E 17:50:54 10° SE
Okean-O 2.6 17:47:28 10° SSE 17:52:00 80° ENE 17:56:27 10° N
Cosmos 1461 3.9 17:49:29 10° NW 17:53:19 41° SW 17:57:04 10° SSE
Cosmos 1703 Rocket 4.0 17:49:16 10° SSW 17:53:38 68° W 17:57:59 10° N
EO 1 Del DPAF 4.2 17:51:57 10° NE 17:55:14 27° ESE 17:58:31 10° SSE
RESURS DK-1 4.1 17:53:24 10° WNW 17:57:06 31° WSW 18:00:51 10° S
Radarsat Rocket 4.3 17:55:00 10° SSE 18:01:15 86° WSW 18:08:12 10° NNW
Cosmos 1727 Rocket 4.2 17:58:33 10° N 18:04:56 85° W 18:11:24 10° S
Cosmos 2263 4.2 18:05:01 10° NNW 18:10:47 83° ENE 18:16:39 10° SSE
Cosmos 1802 Rocket 4.4 18:06:02 10° S 18:11:53 40° ESE 18:17:42 10° NNE
Cosmos 2208 Rocket 4.0 18:08:39 10° SSW 18:14:05 73° ESE 18:19:23 10° NNE
Okean 1-7 3.9 18:10:26 10° SSW 18:14:41 53° W 18:18:52 10° N
Meteor 1-4 Rocket 2.7 18:11:58 10° N 18:15:42 57° E 18:19:29 10° SSE
CENTAUR R/B 3.0 18:16:53 10° SW 18:22:31 53° WNW 18:27:47 10° NNE
CZ-2C R/B 4.1 18:21:44 10° S 18:26:17 33° WSW 18:30:41 10° NW
AQUARIUS 4.3 18:22:11 10° SSE 18:26:40 53° E 18:31:06 10° N
FENGYUN 3A 4.4 18:24:35 17° SE 18:27:49 29° E 18:32:26 10° NNE
MTI 4.4 18:27:01 10° N 18:30:12 59° W 18:33:28 10° SSW
Cosmos 2369 Rocket 3.1 18:25:15 10° NW 18:30:37 47° WSW 18:36:06 10° S
ALOS 3.0 18:28:49 22° SE 18:30:57 31° E 18:35:08 10° NNE
SJ-7 4.5 18:30:32 10° S 18:34:41 81° WSW 18:38:50 10° NNW
Meteor 1-20 Rocket 4.4 18:29:12 10° N 18:34:53 54° E 18:40:35 10° SSE
METEOR-M 4.3 18:30:03 10° SSE 18:35:20 53° E 18:40:34 10° N
ATLAS 5 CENTAUR R/B 3.9 18:30:32 10° WNW 18:36:40 35° SW 18:42:25 10° SSE
Cosmos 1184 Rocket 2.8 18:35:01 10° S 18:38:26 83° W 18:41:49 10° N
Cosmos 1484 Rocket 3.7 18:34:57 10° S 18:38:43 49° WSW 18:42:23 10° NNW
Cosmos 1459 Rocket 3.9 18:32:32 10° S 18:38:49 81° E 18:44:56 10° N
Cosmos 1437 Rocket 4.1 18:35:10 10° NNW 18:38:58 42° WSW 18:42:47 10° S
deb Kosmos-1763 4.3 18:35:43 10° SSW 18:39:32 75° WNW 18:43:17 10° NNE
Cosmos 1908 Rocket 4.1 18:35:42 10° NNE 18:39:41 35° E 18:40:16 34° ESE
Landsat 4 3.8 18:36:29 10° N 18:40:17 80° WNW 18:44:10 10° SSW
SL-8 R/B 3.7 18:36:09 10° NW 18:40:58 74° NE 18:43:04 34° ESE
Meteor 2-12 Rocket 4.3 18:37:39 10° S 18:43:49 84° E 18:49:54 10° N
Ariane Rocket 3.2 18:41:53 22° SE 18:44:52 46° E 18:49:43 10° N
Okean 3 3.5 18:42:11 10° S 18:46:29 57° E 18:50:46 10° NNE
Cosmos 1733 Rocket 3.4 18:43:42 10° NNW 18:48:07 69° W 18:52:37 10° S
Cosmos 2173 Rocket 4.1 18:44:38 10° S 18:51:00 82° W 18:57:21 10° N
CZ-4 R/B 1.4 18:49:42 34° SE 18:51:24 61° E 18:55:35 10° N
Cosmos 1763 Rocket 3.4 18:50:33 10° SSW 18:55:53 87° ESE 19:01:13 10° NNE
Cosmos 1674 Rocket 3.4 18:51:38 10° S 18:56:07 81° E 19:00:33 10° N
SL-08 R/B 4.5 18:52:27 10° S 18:58:56 69° E 19:05:20 10° NNE
CSL-04 Rocket 3.6 18:53:55 10° SSE 18:59:30 86° ENE 19:05:04 10° NNW
Cosmos 389 Rocket 2.4 18:58:27 10° N 19:02:05 89° E 19:02:08 87° SSE
Cosmos 841 Rocket 3.3 18:57:34 10° SSW 19:02:47 69° ESE 19:07:58 10° NNE
Cosmos 1812 3.8 18:59:58 10° SSW 19:03:44 46° W 19:07:26 10° NNW
SMAP 3.8 19:03:40 10° S 19:08:15 52° WSW 19:12:47 10° NNW
Cosmos 1943 Rocket 3.9 19:05:39 10° WNW 19:10:38 31° WSW 19:15:40 10° S
Lacrosse 5 4.2 19:08:42 10° SW 19:11:17 14° SSW 19:13:21 11° S
Hubble Space Telescope 2.6 19:10:15 10° NW 19:13:31 22° N 19:13:54 22° N
Cosmos 2016 Rocket 4.1 19:07:33 10° S 19:13:48 76° W 19:19:54 10° N
Cosmos 292 Rocket 3.7 19:14:42 10° SSW 19:19:38 86° WNW 19:21:21 41° NNE
Thor Agena Rocket 3.7 19:19:08 10° N 19:24:14 72° WNW 19:29:22 10° SSW
Cosmos 1354 Rocket 4.3 19:19:04 10° N 19:23:17 52° NNE 19:23:17 52° NNE
Cosmos 1725 Rocket 4.0 19:21:03 10° S 19:27:21 82° W 19:33:32 10° N
YAOGAN 1 3.1 19:32:10 56° NW 19:32:10 56° NW 19:35:45 10° NNW
CZ-3C R/B 4.4 19:28:06 10° NNW 19:34:02 29° NNE 19:38:47 25° NE
COSMOS 2455 4.5 19:32:26 10° SSW 19:34:35 21° S 19:34:35 21° S
ALOS 4.3 20:07:21 23° SW 20:08:12 24° WSW 20:11:57 10° WNW
ATLAS 3B CENTAUR R/B 4.4 20:37:21 10° W 20:56:59 48° NNW 20:57:16 48° NNW
